Location: Springfield
(37.2150°N, 93.2980°W)
Time: 06:03:48
(UTC-05:00)

Daily predictions for brighter satellites

Satellite Brightness Start Highest point End
(mag) Time Altitude Azimuth Time Altitude Azimuth Time Altitude Azimuth
Cosmos 1743 Rocket 3.8 18:49:40 10° N 18:53:56 48° E 18:58:12 10° SSE
SL-08 R/B 4.5 18:49:18 10° S 18:55:25 69° E 19:01:30 10° NNE
SL-16 R/B 2.5 18:49:57 10° NNW 18:55:38 76° WSW 19:01:16 10° SSE
ISS -0.9 18:54:29 10° W 18:56:54 19° SW 18:59:18 10° S
Cosmos 1766 Rocket 4.3 18:52:55 10° NNW 18:57:19 61° W 19:01:42 10° S
Cosmos 2221 3.6 18:54:40 10° SE 18:58:05 23° E 19:01:32 10° NE
Cosmos 1842 Rocket 3.6 18:55:35 10° S 19:00:00 61° E 19:04:24 10° NNE
Cosmos 1908 4.1 18:56:41 10° SSE 19:00:03 28° E 19:03:25 10° NNE
METEOR-M 4.4 18:55:11 10° SE 19:00:17 48° ENE 19:05:25 10° N
CZ-4C R/B 3.0 18:57:59 10° SSE 19:02:06 26° ESE 19:06:36 10° NE
GENESIS II 4.2 18:58:56 10° SSW 19:02:53 79° ESE 19:06:52 10° NNE
SL-24 R/B - RUBIN 2 4.2 18:59:50 10° NNW 19:04:22 39° NE 19:08:30 10° ESE
BREEZE-M DEB (TANK) 3.3 19:02:17 10° W 19:04:45 29° NW 19:06:33 10° NNE
Cosmos 921 Rocket 3.7 19:03:40 10° N 19:07:41 33° ENE 19:11:37 10° SE
Cosmos 1400 Rocket 2.7 19:05:40 10° N 19:09:41 72° E 19:13:37 10° SSE
MTI 4.2 19:06:35 10° N 19:09:47 66° WNW 19:12:57 10° SSW
Iridium 4 Rocket 4.4 19:05:52 10° SE 19:10:41 32° E 19:15:46 10° NNE
CZ-4 R/B 4.4 19:07:55 10° SSE 19:12:03 81° ENE 19:16:12 10° N
MOS 1 4.3 19:06:47 10° SSE 19:12:22 67° ENE 19:18:01 10° N
DELTA 2 R/B (1) 3.6 19:08:30 10° WNW 19:14:06 76° N 19:19:09 13° E
Cosmos 1500 Rocket 3.5 19:10:54 10° N 19:15:13 64° E 19:19:29 10° SSE
CZ-4 R/B 2.5 19:13:27 10° S 19:17:33 51° W 19:21:37 10° NNW
Cosmos 1626 2.3 19:16:45 10° N 19:20:29 75° W 19:24:11 10° S
Cosmos 1048 Rocket 4.2 19:19:19 10° S 19:24:10 44° ESE 19:29:01 10° NNE
ALOS 2.5 19:19:54 10° SE 19:24:20 46° ENE 19:28:48 10° N
Cosmos 1300 4.1 19:29:32 10° SE 19:31:27 19° ESE 19:31:27 19° ESE
MONITOR-E 4.4 19:29:20 10° S 19:32:24 73° WSW 19:35:29 10° NNW
Cosmos 1420 Rocket 4.1 19:27:15 10° N 19:32:28 54° ENE 19:37:36 10° SSE
APEX 2.6 19:30:12 10° SSW 19:33:34 63° ESE 19:35:53 15° NNE
Cosmos 2360 Rocket 2.2 19:29:58 10° NNW 19:35:39 88° WSW 19:41:20 10° SSE
Cosmos 158 Rocket 3.8 19:33:07 10° S 19:38:06 77° ESE 19:43:16 10° NNE
Abrixas 2.0 19:36:28 10° SW 19:38:32 45° SE 19:38:32 45° SE
COSMO-SKYMED 1 3.3 19:34:40 10° N 19:38:56 57° WNW 19:43:10 10° SSW
Thor Agena Rocket 3.7 19:34:07 10° NNE 19:39:03 48° E 19:43:54 10° S
COSMOS 2428 3.1 19:33:50 10° N 19:39:13 43° ENE 19:44:03 13° SE
Cosmos 2333 Rocket 3.3 19:37:40 10° N 19:42:16 24° ENE 19:43:38 22° ENE
Cosmos 2322 Rocket 4.4 19:38:49 10° NW 19:43:32 28° WSW 19:48:14 10° SSW
Sich 1 3.9 19:40:45 10° NNE 19:44:28 27° ENE 19:44:35 27° E
Cosmos 2219 3.2 19:39:03 10° S 19:44:41 59° ESE 19:50:19 10° NNE
BREEZE-M DEB (TANK) 4.3 19:38:15 10° W 19:49:11 39° NNW 19:52:04 19° NE
Cosmos 1805 Rocket 3.6 19:49:32 10° N 19:53:50 53° E 19:58:08 10° SSE
Cosmos 1315 Rocket 3.3 19:50:23 10° NNW 19:54:26 65° W 19:58:30 10° S
Cosmos 2297 Rocket 4.1 19:52:17 10° SE 19:52:50 12° SE 19:52:50 12° SE
Centaur D AC-29 3.0 19:47:02 10° WSW 19:56:42 31° SSW 19:59:13 18° SE
FENGYUN 3A 3.7 19:52:01 10° SSE 19:57:24 85° WSW 20:02:51 10° NNW
Cosmos 44 3.1 19:53:36 10° SW 19:57:58 73° WNW 20:01:36 14° NNE
FengYun 1-2 T 4.2 19:53:04 10° SSE 19:58:26 57° ENE 20:03:47 10° N
Cosmos 1666 Rocket 4.0 19:58:37 10° N 20:02:13 39° ENE 20:02:13 39° ENE
Cosmos 1821 Rocket 3.9 19:59:20 10° S 20:05:29 87° E 20:11:45 10° N
Cosmos 1000 Rocket 4.4 20:01:38 10° N 20:07:53 90° SW 20:14:03 10° S
Cosmos 2322 4.3 20:02:56 10° NNW 20:08:33 58° WSW 20:14:07 10° S
Cosmos 1934 Rocket 3.9 20:02:55 10° S 20:09:12 70° E 20:15:32 10° NNE
OAO 1 Rocket 4.5 20:04:08 10° WSW 20:09:24 70° S 20:10:58 44° ESE
Cosmos 1633 Rocket 4.1 20:05:58 10° N 20:08:36 30° NNE 20:08:36 30° NNE
Cosmos 1269 Rocket 4.2 20:06:39 10° SSW 20:11:53 74° WNW 20:17:11 10° NNE
Cosmos 2239 Rocket 4.5 20:06:34 10° S 20:12:41 82° W 20:18:51 10° N
FREGAT/IRIS 4.4 20:14:46 25° NNW 20:14:46 25° NNW 20:16:10 10° NNW
Centaur AC-112 4.2 20:09:04 10° WSW 20:13:14 18° SSW 20:14:08 17° S
SJ-6B 3.6 20:16:15 35° N 20:16:15 35° N 20:18:35 10° N
USA 267 3.2 20:12:42 31° ENE 20:15:51 60° SE 20:22:17 10° SSW
ASTRO E2 3.9 20:12:38 10° WSW 20:16:08 30° S 20:16:30 29° S
MOS 1-B Rocket 4.1 20:15:59 43° E 20:16:29 44° ENE 20:22:05 10° N
RESURS DK-1 4.4 20:14:10 10° NW 20:17:42 28° WSW 20:21:15 10° SSW
Cosmos 44 Rocket 4.2 20:17:25 10° SW 20:21:56 45° NW 20:25:31 15° NNE
Cosmos 1726 3.0 20:18:42 10° SSW 20:22:17 49° W 20:25:54 10° N
Cosmos 2219 Rocket 2.1 20:18:46 10° NNW 20:24:19 62° ENE 20:25:03 57° ESE
Meteor 2-10 3.8 20:21:39 10° S 20:26:40 90° WNW 20:31:47 10° N
Cosmos 2098 Rocket 4.3 20:24:57 10° SSW 20:29:05 47° WNW 20:34:20 10° N
Aureole 2 Rocket 3.8 20:29:16 10° NNW 20:31:42 37° NNW 20:31:42 37° NNW
Delta 2 Rocket 4.3 20:30:47 10° W 20:33:10 36° WSW 20:33:10 36° WSW
Atlas Centaur 2 3.4 20:32:23 10° WSW 20:36:39 28° SSW 20:37:32 27° S
Cosmos 2123 Rocket 3.9 20:31:10 10° N 20:37:26 87° E 20:42:54 14° S
Cosmos 1605 Rocket 3.8 20:33:39 10° S 20:39:46 83° E 20:45:52 10° N
Gbstr 26 Del rocket 3.8 20:35:29 10° NW 20:40:49 64° NE 20:40:52 64° NE
H-2A R/B 4.1 20:42:45 34° SW 20:43:33 39° W 20:47:14 10° NNW
CZ-4C R/B 3.3 20:45:22 10° WSW 20:50:14 40° NW 20:53:44 20° N
In-Cosmos 22 Rocket 4.3 20:50:52 10° NNW 20:56:37 74° W 20:57:09 69° SW
Cosmos 2237 Rocket 3.1 20:51:30 10° NNW 20:55:03 38° N 20:55:03 38° N
Resurs 01 Rocket 4.1 21:01:21 14° NNW 21:01:21 14° NNW 21:01:59 10° NNW
DELTA 2 R/B (1) 4.2 20:55:04 10° WNW 20:59:55 50° SW 20:59:55 50° SW
Cosmos 2227 Rocket 3.3 20:56:18 10° SSW 20:59:25 35° SSW 20:59:25 35° SSW
SL-16 R/B 4.3 21:02:36 10° N 21:03:42 15° N 21:03:42 15° N
Cosmos 2333 Rocket 3.3 21:21:16 10° NW 21:25:40 41° WNW 21:25:40 41° WNW
USA 267 4.5 22:00:06 35° WNW 22:00:06 35° WNW 22:04:36 10° W
